FW9968 Weather Reports


time (UTC)temp
C
wind
direction
speed
KPH
gust
KPH
rain 1hr
cm
rain 24hr
cm
rain mn
cm
humidity
%
barometer
mb
20260504150820 20 170 0.0 0.0 0.00 0.00 0.00 46 1013.0
20260504150316 19 133 0.0 0.0 0.00 0.00 0.00 46 1013.2
20260504141247 17 136 0.0 0.0 0.00 0.00 0.00 56 1013.1
20260504140743 16 201 8.0 16.1 0.00 0.00 0.00 56 1013.3
20260504140239 16 113 0.0 1.6 0.00 0.00 0.00 57 1013.3
20260504130708 15 186 6.4 9.7 0.00 0.00 0.00 62 1013.6
20260504130203 14 254 0.0 0.0 0.00 0.00 0.00 67 1013.9
20260504120127 12 199 0.0 1.6 0.00 0.00 0.00 77 1014.2
20260504110555 8 148 0.0 0.0 0.00 0.00 0.00 86 1014.7
20260504100517 6 148 0.0 0.0 0.00 0.00 0.00 85 1014.6
20260504081910 8 147 0.0 0.0 0.00 0.00 0.00 70 1014.5
20260504081407 8 165 0.0 0.0 0.00 0.00 0.00 69 1014.5
20260504080903 8 142 0.0 0.0 0.00 0.00 0.00 69 1014.4
20260504080400 8 142 0.0 0.0 0.00 0.00 0.00 69 1014.4
20260504070327 7 148 0.0 0.0 0.00 0.00 0.00 69 1014.0
20260504060247 8 186 0.0 0.0 0.00 0.00 0.00 66 1014.1
20260504050715 7 169 0.0 0.0 0.00 0.00 0.00 64 1014.1
20260504050212 7 193 0.0 0.0 0.00 0.00 0.00 64 1014.1
20260504045709 7 144 0.0 0.0 0.00 0.00 0.00 65 1013.9
20260504045204 7 140 0.0 0.0 0.00 0.00 0.00 65 1014.0
20260504044702 7 171 0.0 0.0 0.00 0.00 0.00 64 1013.8
20260504044159 8 160 0.0 0.0 0.00 0.00 0.00 64 1013.9
20260504043655 8 185 0.0 0.0 0.00 0.00 0.00 62 1013.9
20260504043153 7 173 0.0 0.0 0.00 0.00 0.00 62 1014.0
20260504042650 7 146 0.0 0.0 0.00 0.00 0.00 64 1014.0
20260504042146 7 158 0.0 0.0 0.00 0.00 0.00 66 1013.7
20260504041642 7 170 0.0 0.0 0.00 0.00 0.00 64 1013.8
20260504041138 7 158 0.0 0.0 0.00 0.00 0.00 63 1013.8
20260504040636 7 159 0.0 0.0 0.00 0.00 0.00 64 1013.6
20260504040133 7 147 0.0 0.0 0.00 0.00 0.00 62 1013.4
20260504035629 8 157 0.0 0.0 0.00 0.00 0.00 61 1013.6
20260504035126 8 154 0.0 0.0 0.00 0.00 0.00 60 1013.5
20260504034624 8 143 0.0 0.0 0.00 0.00 0.00 61 1013.5
20260504034121 8 155 0.0 0.0 0.00 0.00 0.00 60 1013.6
20260504033618 8 169 0.0 0.0 0.00 0.00 0.00 60 1013.3
20260504033115 8 139 0.0 0.0 0.00 0.00 0.00 60 1013.4
20260504032612 8 156 0.0 0.0 0.00 0.00 0.00 60 1013.3
20260504032109 8 152 0.0 0.0 0.00 0.00 0.00 59 1013.3
20260504031606 8 147 0.0 0.0 0.00 0.00 0.00 59 1013.2
20260504031102 8 157 0.0 0.0 0.00 0.00 0.00 58 1013.3
20260504030600 8 162 0.0 0.0 0.00 0.00 0.00 59 1013.2
20260504030056 8 164 0.0 0.0 0.00 0.00 0.00 58 1013.4
20260504025553 8 149 0.0 0.0 0.00 0.00 0.00 57 1013.3
20260504025050 8 162 0.0 0.0 0.00 0.00 0.00 57 1013.4
20260504024547 8 161 0.0 0.0 0.00 0.00 0.00 59 1013.5
20260504024044 8 144 0.0 0.0 0.00 0.00 0.00 60 1013.3
20260504023540 7 156 0.0 0.0 0.00 0.00 0.00 60 1013.5
20260504023036 7 162 0.0 0.0 0.00 0.00 0.00 61 1013.4
20260504022532 8 146 0.0 0.0 0.00 0.00 0.00 59 1013.5
20260504022029 8 153 0.0 0.0 0.00 0.00 0.00 59 1013.3
20260504021526 8 159 0.0 0.0 0.00 0.00 0.00 59 1013.5
20260504021023 8 163 0.0 0.0 0.00 0.00 0.00 56 1013.4
20260504020520 8 152 0.0 0.0 0.00 0.00 0.00 56 1013.4
20260504020017 8 187 0.0 0.0 0.00 0.00 0.00 56 1013.3
20260504015513 8 153 0.0 0.0 0.00 0.00 0.00 56 1013.1
20260504015009 8 159 0.0 0.0 0.00 0.00 0.00 55 1013.5
20260504014505 8 155 0.0 0.0 0.00 0.00 0.00 56 1013.3
20260504014003 8 158 0.0 0.0 0.00 0.00 0.00 56 1013.1
20260504013500 8 152 0.0 0.0 0.00 0.00 0.00 57 1013.1
20260504012956 9 160 0.0 0.0 0.00 0.00 0.00 55 1013.2
20260504012454 9 152 0.0 0.0 0.00 0.00 0.00 54 1013.1
20260504011952 9 163 0.0 0.0 0.00 0.00 0.00 55 1013.0
20260504011448 9 157 0.0 0.0 0.00 0.00 0.00 55 1013.0
20260504010944 9 157 0.0 0.0 0.00 0.00 0.00 56 1012.9
20260504010440 9 161 0.0 0.0 0.00 0.00 0.00 56 1012.8
20260504005936 9 157 0.0 0.0 0.00 0.00 0.00 53 1012.7
20260504005433 10 159 0.0 0.0 0.00 0.00 0.00 52 1012.7
20260504004931 10 152 0.0 0.0 0.00 0.00 0.00 50 1012.6
20260504004428 10 156 0.0 0.0 0.00 0.00 0.00 50 1012.4
20260504003925 10 159 0.0 0.0 0.00 0.00 0.00 49 1012.5
20260504003421 10 159 0.0 0.0 0.00 0.00 0.00 48 1012.3
20260504002918 11 151 0.0 0.0 0.00 0.00 0.00 48 1012.3
20260504002415 11 143 0.0 0.0 0.00 0.00 0.00 46 1012.3
20260504001913 11 151 0.0 0.0 0.00 0.00 0.00 44 1012.2
20260504001410 12 157 0.0 0.0 0.00 0.00 0.00 42 1012.1
20260504000906 12 150 0.0 0.0 0.00 0.00 0.00 43 1012.1
20260504000404 12 183 0.0 0.0 0.00 0.00 0.00 40 1012.1
20260503235901 12 205 0.0 0.0 0.00 0.00 0.00 39 1012.0
20260503235359 12 134 0.0 0.0 0.00 0.00 0.00 40 1012.1
20260503234856 13 137 0.0 0.0 0.00 0.00 0.00 39 1012.0
20260503234354 13 142 0.0 0.0 0.00 0.00 0.00 39 1011.9
20260503233851 13 168 0.0 0.0 0.00 0.00 0.00 37 1012.0
20260503233347 13 212 0.0 0.0 0.00 0.00 0.00 37 1011.8
20260503232844 13 129 1.6 1.6 0.00 0.00 0.00 36 1011.7
20260503232341 13 138 0.0 0.0 0.00 0.00 0.00 36 1011.7
20260503231839 13 44 0.0 0.0 0.00 0.00 0.00 36 1011.6
20260503231336 14 138 0.0 0.0 0.00 0.00 0.00 36 1011.7
20260503230832 14 152 0.0 0.0 0.00 0.00 0.00 36 1011.6
20260503230329 14 106 0.0 3.2 0.00 0.00 0.00 35 1011.4
20260503225827 14 204 1.6 4.8 0.00 0.00 0.00 35 1011.6
20260503225322 14 152 0.0 0.0 0.00 0.00 0.00 36 1011.6
20260503224819 14 48 0.0 0.0 0.00 0.00 0.00 37 1011.8
20260503224316 14 338 0.0 0.0 0.00 0.00 0.00 35 1011.5
20260503223814 14 160 0.0 1.6 0.00 0.00 0.00 37 1011.6
20260503223311 14 51 0.0 1.6 0.00 0.00 0.00 36 1011.6
20260503222807 15 250 0.0 0.0 0.00 0.00 0.00 35 1011.6
20260503222306 15 156 1.6 4.8 0.00 0.00 0.00 35 1011.6
20260503221803 15 140 0.0 0.0 0.00 0.00 0.00 35 1011.5
20260503221301 15 24 0.0 1.6 0.00 0.00 0.00 34 1011.5
20260503220757 15 176 0.0 1.6 0.00 0.00 0.00 36 1011.6
20260503220254 15 156 0.0 1.6 0.00 0.00 0.00 37 1011.7
20260503215751 15 189 3.2 9.7 0.00 0.00 0.00 34 1011.8
20260503215248 15 129 0.0 1.6 0.00 0.00 0.00 36 1011.7
20260503214746 15 123 3.2 4.8 0.00 0.00 0.00 34 1011.7
20260503214242 15 116 0.0 0.0 0.00 0.00 0.00 35 1011.7
20260503213741 15 126 0.0 0.0 0.00 0.00 0.00 34 1011.6
20260503213238 15 88 3.2 4.8 0.00 0.00 0.00 35 1011.3
20260503212734 15 11 3.2 4.8 0.00 0.00 0.00 34 1011.4
20260503212232 15 165 0.0 0.0 0.00 0.00 0.00 34 1011.4
20260503211730 15 220 4.8 4.8 0.00 0.00 0.00 34 1011.4
20260503211226 15 141 0.0 1.6 0.00 0.00 0.00 33 1011.4
20260503210721 15 55 0.0 0.0 0.00 0.00 0.00 34 1011.5
20260503210219 15 258 0.0 1.6 0.00 0.00 0.00 35 1011.5
20260503205714 15 10 3.2 4.8 0.00 0.00 0.00 33 1011.5
20260503205210 15 331 0.0 0.0 0.00 0.00 0.00 33 1011.3
20260503204707 15 26 0.0 0.0 0.00 0.00 0.00 33 1011.5
20260503204205 15 119 4.8 8.0 0.00 0.00 0.00 33 1011.6
20260503203702 15 124 0.0 0.0 0.00 0.00 0.00 35 1011.4
20260503203159 15 171 4.8 8.0 0.00 0.00 0.00 35 1011.5
20260503202656 15 9 0.0 1.6 0.00 0.00 0.00 34 1011.4
20260503202154 15 179 0.0 0.0 0.00 0.00 0.00 31 1011.5
20260503201652 16 151 3.2 9.7 0.00 0.00 0.00 32 1011.4
20260503201149 16 352 3.2 4.8 0.00 0.00 0.00 34 1011.4
20260503200645 16 260 0.0 0.0 0.00 0.00 0.00 33 1011.5
20260503200141 15 111 0.0 1.6 0.00 0.00 0.00 34 1011.5
20260503195639 16 146 1.6 3.2 0.00 0.00 0.00 34 1011.7
20260503195136 16 43 3.2 4.8 0.00 0.00 0.00 31 1011.3
20260503194633 16 54 3.2 11.3 0.00 0.00 0.00 33 1011.5
20260503194128 16 241 1.6 8.0 0.00 0.00 0.00 34 1011.8
20260503193625 16 205 0.0 1.6 0.00 0.00 0.00 33 1011.4
20260503193121 16 138 3.2 8.0 0.00 0.00 0.00 33 1011.6
20260503192616 16 105 0.0 0.0 0.00 0.00 0.00 34 1011.9
20260503192112 16 18 1.6 1.6 0.00 0.00 0.00 34 1011.9
20260503191609 16 276 0.0 1.6 0.00 0.00 0.00 33 1012.0
20260503191106 16 261 0.0 0.0 0.00 0.00 0.00 37 1012.0
20260503190604 15 122 4.8 8.0 0.00 0.00 0.00 34 1011.8
20260503190101 15 152 0.0 0.0 0.00 0.00 0.00 36 1012.2
20260503185557 15 103 1.6 4.8 0.00 0.00 0.00 33 1012.1
20260503185056 15 334 1.6 1.6 0.00 0.00 0.00 34 1012.1
20260503184552 15 70 6.4 11.3 0.00 0.00 0.00 33 1012.1
20260503184049 15 217 3.2 4.8 0.00 0.00 0.00 34 1012.6
20260503183546 15 6 0.0 1.6 0.00 0.00 0.00 34 1012.4
20260503183043 16 79 0.0 0.0 0.00 0.00 0.00 33 1012.4
20260503182541 15 147 0.0 1.6 0.00 0.00 0.00 35 1012.2
20260503182039 15 163 0.0 0.0 0.00 0.00 0.00 39 1012.2
20260503181536 15 119 0.0 1.6 0.00 0.00 0.00 39 1012.5
20260503181032 15 159 8.0 14.5 0.00 0.00 0.00 35 1012.5
20260503180529 13 224 0.0 1.6 0.00 0.00 0.00 39 1012.4
20260503180027 13 190 1.6 3.2 0.00 0.00 0.00 40 1012.6
20260503175524 15 249 1.6 3.2 0.00 0.00 0.00 38 1012.7
20260503175021 14 127 1.6 3.2 0.00 0.00 0.00 41 1012.4
20260503174518 14 325 0.0 0.0 0.00 0.00 0.00 39 1012.5
20260503174014 14 329 0.0 0.0 0.00 0.00 0.00 39 1012.5
20260503173509 14 122 6.4 11.3 0.00 0.00 0.00 36 1012.4
20260503173006 14 239 0.0 0.0 0.00 0.00 0.00 40 1012.5
20260503172504 14 124 3.2 4.8 0.00 0.00 0.00 36 1012.7
20260503172001 15 171 0.0 1.6 0.00 0.00 0.00 38 1012.7
20260503171457 14 68 0.0 0.0 0.00 0.00 0.00 39 1012.7
20260503170954 13 122 0.0 0.0 0.00 0.00 0.00 41 1012.4
20260503170450 13 108 3.2 9.7 0.00 0.00 0.00 42 1012.6